User: anonymous   Login
Location: Bothell
(47.7630°N, 122.2040°W)
Time: 20:40:49
(UTC-07:00)
Language:

Oscar 16 - Orbit

View from above orbital plane
View from above orbital plane
View from above satellite
View from above satellite

Ground track
Ground track

The orbit data is extracted from the following two-line orbital elements,

1 20439U 90005D   14298.79178917  .00000418  00000-0  17024-3 0  1571
2 20439 098.5175 233.7245 0011912 130.4922 259.2724 14.32410516293187
Epoch (UTC): 25 October 2014 19:00:10
Eccentricity: 0.0011912
inclination: 98.5175°
perigee height: 775 km
apogee height: 792 km
right ascension of ascending node: 233.7245°
argument of perigee: 130.4922°
revolutions per day: 14.32410516
mean anomaly at epoch: 259.2724°
orbit number at epoch: 29318

The dashed part of the orbit path shows where the satellite is in the earth's shadow,  

DLR